Change the Weather History Date:

Friday, September 7, 2012

  Actual Average Record
Temperature  
Mean Temperature 78 °F 71 °F  
Max Temperature 95 °F 82 °F 102 °F (1939)
Min Temperature 60 °F 60 °F 40 °F (1956)
Degree Days  
Heating Degree Days 0 1  
Month to date heating degree days 0 1  
Since 1 July heating degree days 0 3  
Cooling Degree Days 13 7  
Month to date cooling degree days 101 54  
Year to date cooling degree days 1824 1137  
Growing Degree Days 29 (Base 50)    
Moisture  
Dew Point 65 °F    
Average Humidity 67    
Maximum Humidity 93    
Minimum Humidity 41    
Precipitation  
Precipitation 0.66 in 0.13 in 1.79 in (1972)
Month to date precipitation 1.12 0.92  
Year to date precipitation 23.95 30.67  
Snow  
Snow 0.00 in 0.00 in 0.00 in (2013)
Month to date snowfall 0.0 0.0  
Since 1 July snowfall 0.0 0.0  
Since 1 September snowfall 0.0 0.0  
Snow Depth 0.00 in    
Sea Level Pressure  
Sea Level Pressure 29.83 in    
Wind  
Wind Speed 11 mph (WNW)    
Max Wind Speed 37 mph    
Max Gust Speed 44 mph    
Visibility 9 miles    
Events Rain , Thunderstorm    
T = Trace of Precipitation, MM = Missing Value Source: NWS Daily Summary

Daily Weather History Graph

Daily Weather History Graph

Search for Another Location

Airport or City:

Trip Planner

Search our weather history database for the weather conditions in past years. The results will help you decide how hot, cold, wet, or windy it might be!

Date:

Astronomy

Sep. 07, 2012 Rise Set
Actual Time 6:43 AM CDT 7:29 PM CDT
Civil Twilight 6:16 AM CDT 7:55 PM CDT
Nautical Twilight 5:44 AM CDT 8:27 PM CDT
Astronomical Twilight 5:11 AM CDT 9:00 PM CDT
Moon 11:29 PM CDT (9/7) 1:31 PM CDT (9/7)
Length of Visible Light 13h 39m
Length of Day
12h 45m
Waning Gibbous, 58% of the Moon is Illuminated
Sep 7
Waning Gibbous
Sep 8
Last Quarter
Sep 15
New
Sep 22
First Quarter
Sep 29
Full

Hourly Weather History & Observations

Time (CDT) Temp. Heat Index Dew Point Humidity Pressure Visibility Wind Dir Wind Speed Gust Speed Precip Events Conditions
12:54 AM 71.1 °F - 61.0 °F 70% 29.87 in 10.0 mi South 9.2 mph - N/A   Clear
1:54 AM 73.0 °F - 60.1 °F 64% 29.85 in 10.0 mi South 11.5 mph - N/A   Clear
2:54 AM 72.0 °F - 60.1 °F 66% 29.83 in 10.0 mi South 10.4 mph - N/A   Clear
3:54 AM 70.0 °F - 61.0 °F 73% 29.83 in 10.0 mi South 6.9 mph - N/A   Clear
4:54 AM 69.1 °F - 62.1 °F 78% 29.81 in 10.0 mi South 8.1 mph - N/A   Clear
5:54 AM 70.0 °F - 64.0 °F 81% 29.81 in 10.0 mi SSW 9.2 mph - N/A   Clear
6:54 AM 70.0 °F - 64.0 °F 81% 29.82 in 10.0 mi South 5.8 mph - N/A   Clear
7:54 AM 73.9 °F - 64.9 °F 73% 29.82 in 10.0 mi SSW 6.9 mph - N/A   Clear
8:54 AM 79.0 °F - 66.9 °F 66% 29.82 in 10.0 mi SW 9.2 mph - N/A   Clear
9:54 AM 84.9 °F 88.8 °F 69.1 °F 59% 29.82 in 10.0 mi WSW 15.0 mph - N/A   Clear
10:54 AM 87.1 °F 90.6 °F 68.0 °F 53% 29.82 in 10.0 mi WSW 11.5 mph 19.6 mph N/A   Clear
11:54 AM 90.0 °F 92.8 °F 66.9 °F 46% 29.78 in 10.0 mi WSW 9.2 mph - N/A   Clear
12:54 PM 91.0 °F 94.3 °F 66.9 °F 45% 29.76 in 10.0 mi SSW 6.9 mph - N/A   Clear
1:54 PM 93.9 °F 97.0 °F 66.0 °F 40% 29.73 in 10.0 mi WSW 5.8 mph - N/A   Clear
2:54 PM 91.9 °F 95.4 °F 66.9 °F 44% 29.73 in 10.0 mi NW 9.2 mph - N/A   Mostly Cloudy
3:54 PM 89.1 °F 92.9 °F 68.0 °F 50% 29.68 in 10.0 mi NNW 15.0 mph - N/A   Clear
3:58 PM 87.8 °F 92.6 °F 69.8 °F 55% 29.71 in 10.0 mi North 12.7 mph - N/A Thunderstorm Thunderstorm
4:31 PM 71.6 °F - 69.8 °F 94% 29.76 in 1.8 mi North 26.5 mph 43.7 mph 0.04 in Rain , Thunderstorm Heavy Thunderstorms and Rain
4:54 PM 72.0 °F - 70.0 °F 93% 29.78 in 1.8 mi North 20.7 mph 26.5 mph 0.56 in Rain , Thunderstorm Thunderstorms and Rain
4:58 PM 71.6 °F - 69.8 °F 94% 29.81 in 3.0 mi North 23.0 mph 33.4 mph 0.03 in Rain , Thunderstorm Light Thunderstorms and Rain
5:54 PM 69.1 °F - 66.0 °F 90% 29.85 in 10.0 mi North 21.9 mph 32.2 mph 0.06 in Rain Light Rain
6:54 PM 69.1 °F - 66.0 °F 90% 29.81 in 10.0 mi NNE 11.5 mph - 0.04 in Rain Light Rain
7:50 PM 68.0 °F - 66.2 °F 94% 29.86 in 10.0 mi NNW 11.5 mph - 0.00 in   Overcast
7:54 PM 68.0 °F - 66.0 °F 93% 29.85 in 10.0 mi NNW 11.5 mph - 0.00 in   Overcast
8:25 PM 68.0 °F - 64.4 °F 88% 29.89 in 10.0 mi North 16.1 mph 29.9 mph N/A   Mostly Cloudy
8:54 PM 66.9 °F - 64.0 °F 90% 29.90 in 10.0 mi North 12.7 mph 20.7 mph N/A   Scattered Clouds
9:02 PM 66.2 °F - 64.4 °F 94% 29.92 in 10.0 mi NNW 12.7 mph - N/A   Mostly Cloudy
9:28 PM 64.4 °F - 60.8 °F 88% 29.92 in 10.0 mi North 16.1 mph 31.1 mph N/A   Partly Cloudy
9:54 PM 64.9 °F - 60.1 °F 84% 29.91 in 10.0 mi NNW 17.3 mph - N/A   Clear
10:54 PM 63.0 °F - 59.0 °F 87% 29.95 in 10.0 mi North 15.0 mph - N/A   Clear
11:54 PM 61.0 °F - 57.9 °F 90% 29.98 in 10.0 mi NNW 6.9 mph - N/A   Clear